This is the latest recevied weather packets stored in our database for station/object ES0THZ-13. If no packets are shown the sender has not sent any weather packets the latest 10 day(s).
| Time | Temp. | Humidity | Pressure | Rain* | Wind** | Luminosity | Snow |
|---|---|---|---|---|---|---|---|
| 1788304340 | 14.44° C | 92% | 1003.9 hPa | - | - | - | - |
| 1788303196 | 14.44° C | 92% | 1004 hPa | - | - | - | - |
| 1788302086 | 15° C | 92% | 1004.3 hPa | - | - | - | - |
| 1788301060 | 14.44° C | 91% | 1003.7 hPa | - | - | - | - |
| 1788299926 | 14.44° C | 91% | 1003.5 hPa | - | - | - | - |
| 1788298866 | 15° C | 91% | 1003.8 hPa | - | - | - | - |
| 1788297776 | 15° C | 91% | 1004.5 hPa | - | - | - | - |
| 1788295642 | 15° C | 91% | 1004.5 hPa | - | - | - | - |
| 1788294516 | 15° C | 91% | 1003.5 hPa | - | - | - | - |
| 1788293491 | 15.56° C | 91% | 1004.3 hPa | - | - | - | - |
| 1788292424 | 15.56° C | 91% | 1003.2 hPa | - | - | - | - |
| 1788291321 | 15.56° C | 90% | 1003.9 hPa | - | - | - | - |
| 1788290211 | 16.11° C | 90% | 1004.1 hPa | - | - | - | - |
| 1788289200 | 16.11° C | 90% | 1003.3 hPa | - | - | - | - |
| 1788288166 | 16.11° C | 90% | 1004.1 hPa | - | - | - | - |
| 1788287166 | 16.67° C | 90% | 1003.4 hPa | - | - | - | - |
| 1788286151 | 16.67° C | 90% | 1003.9 hPa | - | - | - | - |
| 1788285021 | 16.67° C | 90% | 1004 hPa | - | - | - | - |
| 1788283886 | 17.22° C | 90% | 1003 hPa | - | - | - | - |
| 1788281791 | 17.22° C | 89% | 1004 hPa | - | - | - | - |
| 1788280691 | 17.78° C | 89% | 1003.3 hPa | - | - | - | - |
| 1788279591 | 17.78° C | 89% | 1003.9 hPa | - | - | - | - |
| 1788278531 | 17.78° C | 89% | 1004.1 hPa | - | - | - | - |
| 1788277481 | 18.33° C | 89% | 1004 hPa | - | - | - | - |
| 1788276431 | 18.89° C | 89% | 1003.5 hPa | - | - | - | - |
* Rain since midnight (hover to see other rain measurements)
** Current wind speed in m/s (hover to see current wind gust speed)